owner,sensor,date,latitude,longitude,vertical_datum,direction_of_sea_water_velocity,sea_water_speed,upward_sea_water_velocity,qcFlag 
TABS,ioos:station:wmo:42048:1,2009-08-01T00:00:00Z,27.9396,-96.8429,2.0,311.4629045,11.68953378,-99999.0,'11111222,11111222,99999999' 
TABS,ioos:station:wmo:42048:1,2009-08-01T00:30:00Z,27.9396,-96.8429,2.0,317.1635363,10.67785091,-99999.0,'11111222,11111222,99999999' 
TABS,ioos:station:wmo:42048:1,2009-08-01T01:00:00Z,27.9396,-96.8429,2.0,313.3433314,12.47150753,-99999.0,'11111222,11111222,99999999' 
TABS,ioos:station:wmo:42048:1,2009-08-01T01:30:00Z,27.9396,-96.8429,2.0,320.6129979,9.471140375,-99999.0,'11133222,11111222,99999999' 
TABS,ioos:station:wmo:42048:1,2009-08-01T02:00:00Z,27.9396,-96.8429,2.0,313.919394,6.746999333,-99999.0,'11133222,11111222,99999999' 
TABS,ioos:station:wmo:42048:1,2009-08-01T02:30:00Z,27.9396,-96.8429,2.0,332.8717731,8.640584471,-99999.0,'11133222,11111222,99999999' 
TABS,ioos:station:wmo:42048:1,2009-08-01T03:00:00Z,27.9396,-96.8429,2.0,329.5931259,10.94555618,-99999.0,'11111222,11111222,99999999' 
TABS,ioos:station:wmo:42048:1,2009-08-01T03:30:00Z,27.9396,-96.8429,2.0,347.6460315,9.2542963,-99999.0,'11133222,11111222,99999999' 
TABS,ioos:station:wmo:42048:1,2009-08-01T04:00:00Z,27.9396,-96.8429,2.0,353.6958478,8.833419496,-99999.0,'11133222,11111222,99999999' 
TABS,ioos:station:wmo:42048:1,2009-08-01T04:30:00Z,27.9396,-96.8429,2.0,0.397538663,7.210173368,-99999.0,'11133222,11111222,99999999' 
TABS,ioos:station:wmo:42048:1,2009-08-01T05:00:00Z,27.9396,-96.8429,2.0,359.1932829,4.970492933,-99999.0,'11133222,11144222,99999999' 
TABS,ioos:station:wmo:42048:1,2009-08-01T05:30:00Z,27.9396,-96.8429,2.0,19.8553784,5.741297763,-99999.0,'11133222,11111222,99999999' 
TABS,ioos:station:wmo:42048:1,2009-08-01T06:00:00Z,27.9396,-96.8429,2.0,28.76477411,6.52518199,-99999.0,'11133222,11111222,99999999' 
TABS,ioos:station:wmo:42048:1,2009-08-01T06:30:00Z,27.9396,-96.8429,2.0,29.77418771,4.873325353,-99999.0,'11133222,11111222,99999999' 
TABS,ioos:station:wmo:42048:1,2009-08-01T07:00:00Z,27.9396,-96.8429,2.0,0.283849951,2.020024752,-99999.0,'11133222,11111222,99999999' 
TABS,ioos:station:wmo:42048:1,2009-08-01T07:30:00Z,27.9396,-96.8429,2.0,62.70598893,5.975257317,-99999.0,'11133222,11111222,99999999' 
TABS,ioos:station:wmo:42048:1,2009-08-01T08:00:00Z,27.9396,-96.8429,2.0,45.33832825,5.98929879,-99999.0,'11133222,11111222,99999999' 
TABS,ioos:station:wmo:42048:1,2009-08-01T08:30:00Z,27.9396,-96.8429,2.0,49.89918623,4.719502092,-99999.0,'11133222,11111222,99999999' 
TABS,ioos:station:wmo:42048:1,2009-08-01T09:00:00Z,27.9396,-96.8429,2.0,46.35864059,3.578966331,-99999.0,'11133222,11111222,99999999' 
TABS,ioos:station:wmo:42048:1,2009-08-01T09:30:00Z,27.9396,-96.8429,2.0,47.26376718,8.414065605,-99999.0,'11133222,11111222,99999999' 
TABS,ioos:station:wmo:42048:1,2009-08-01T10:00:00Z,27.9396,-96.8429,2.0,73.87462873,6.120816939,-99999.0,'11133222,11111222,99999999' 
TABS,ioos:station:wmo:42048:1,2009-08-01T10:30:00Z,27.9396,-96.8429,2.0,65.75466671,7.40297913,-99999.0,'11133222,11111222,99999999' 
TABS,ioos:station:wmo:42048:1,2009-08-01T11:00:00Z,27.9396,-96.8429,2.0,91.25904226,3.640879015,-99999.0,'11133222,11111222,99999999' 
TABS,ioos:station:wmo:42048:1,2009-08-01T11:30:00Z,27.9396,-96.8429,2.0,109.903703,6.168468205,-99999.0,'11133222,11111222,99999999' 
TABS,ioos:station:wmo:42048:1,2009-08-01T12:00:00Z,27.9396,-96.8429,2.0,88.62266515,9.152644427,-99999.0,'11133222,11111222,99999999' 
TABS,ioos:station:wmo:42048:1,2009-08-01T12:30:00Z,27.9396,-96.8429,2.0,91.13161867,8.101580093,-99999.0,'11133222,11111222,99999999' 
TABS,ioos:station:wmo:42048:1,2009-08-01T13:00:00Z,27.9396,-96.8429,2.0,98.51615269,7.765622963,-99999.0,'11133222,11111222,99999999' 
TABS,ioos:station:wmo:42048:1,2009-08-01T13:30:00Z,27.9396,-96.8429,2.0,108.6826309,5.119775386,-99999.0,'11133222,11111222,99999999' 
TABS,ioos:station:wmo:42048:1,2009-08-01T14:00:00Z,27.9396,-96.8429,2.0,85.70416953,4.272001873,-99999.0,'11133222,11111222,99999999' 
TABS,ioos:station:wmo:42048:1,2009-08-01T14:30:00Z,27.9396,-96.8429,2.0,118.5017849,4.631306511,-99999.0,'11133222,11111222,99999999' 
TABS,ioos:station:wmo:42048:1,2009-08-01T15:00:00Z,27.9396,-96.8429,2.0,72.81788088,3.182011942,-99999.0,'11133222,11111222,99999999' 
TABS,ioos:station:wmo:42048:1,2009-08-01T15:30:00Z,27.9396,-96.8429,2.0,75.17010876,4.727472898,-99999.0,'11133222,11111222,99999999' 
TABS,ioos:station:wmo:42048:1,2009-08-01T16:00:00Z,27.9396,-96.8429,2.0,88.48644284,4.92171718,-99999.0,'11133222,11111222,99999999' 
TABS,ioos:station:wmo:42048:1,2009-08-01T16:30:00Z,27.9396,-96.8429,2.0,94.64454208,6.792304469,-99999.0,'11133222,11111222,99999999' 
TABS,ioos:station:wmo:42048:1,2009-08-01T17:00:00Z,27.9396,-96.8429,2.0,113.9624329,3.348611653,-99999.0,'11133222,11111222,99999999' 
TABS,ioos:station:wmo:42048:1,2009-08-01T17:30:00Z,27.9396,-96.8429,2.0,77.80433205,6.34315379,-99999.0,'11133222,11111222,99999999' 
TABS,ioos:station:wmo:42048:1,2009-08-01T18:00:00Z,27.9396,-96.8429,2.0,98.99017021,3.391666257,-99999.0,'11133222,11111222,99999999' 
TABS,ioos:station:wmo:42048:1,2009-08-01T18:30:00Z,27.9396,-96.8429,2.0,71.56509429,6.830519746,-99999.0,'11133222,11111222,99999999' 
TABS,ioos:station:wmo:42048:1,2009-08-01T19:00:00Z,27.9396,-96.8429,2.0,37.99489703,7.131374342,-99999.0,'11133222,11111222,99999999' 
TABS,ioos:station:wmo:42048:1,2009-08-01T19:30:00Z,27.9396,-96.8429,2.0,40.04547061,5.812925253,-99999.0,'11133222,11111222,99999999' 
TABS,ioos:station:wmo:42048:1,2009-08-01T20:00:00Z,27.9396,-96.8429,2.0,32.53351776,4.946160127,-99999.0,'11133222,11111222,99999999' 
TABS,ioos:station:wmo:42048:1,2009-08-01T20:30:00Z,27.9396,-96.8429,2.0,32.98598617,3.159256242,-99999.0,'11133222,11111222,99999999' 
TABS,ioos:station:wmo:42048:1,2009-08-01T21:00:00Z,27.9396,-96.8429,2.0,38.10593278,5.007164866,-99999.0,'11133222,11111222,99999999' 
TABS,ioos:station:wmo:42048:1,2009-08-01T21:30:00Z,27.9396,-96.8429,2.0,31.35119589,3.805640551,-99999.0,'11133222,11111222,99999999' 
TABS,ioos:station:wmo:42048:1,2009-08-01T22:00:00Z,27.9396,-96.8429,2.0,11.14165542,6.003140845,-99999.0,'11133222,11111222,99999999' 
TABS,ioos:station:wmo:42048:1,2009-08-01T22:30:00Z,27.9396,-96.8429,2.0,10.86514527,6.313168776,-99999.0,'11133222,11111222,99999999' 
TABS,ioos:station:wmo:42048:1,2009-08-01T23:00:00Z,27.9396,-96.8429,2.0,354.026774,7.591218611,-99999.0,'11133222,11111222,99999999' 
TABS,ioos:station:wmo:42048:1,2009-08-01T23:30:00Z,27.9396,-96.8429,2.0,352.9502419,7.577288433,-99999.0,'11133222,11111222,99999999' 
TABS,ioos:station:wmo:42048:1,2009-08-02T00:00:00Z,27.9396,-96.8429,2.0,354.5556664,6.429004589,-99999.0,'11133222,11111222,99999999' 
TABS,ioos:station:wmo:42048:1,2009-08-02T00:30:00Z,27.9396,-96.8429,2.0,338.2206622,4.878216887,-99999.0,'11133222,11111222,99999999' 
TABS,ioos:station:wmo:42048:1,2009-08-02T01:00:00Z,27.9396,-96.8429,2.0,341.7599035,6.517491849,-99999.0,'11133222,11111222,99999999' 
TABS,ioos:station:wmo:42048:1,2009-08-02T01:30:00Z,27.9396,-96.8429,2.0,335.6698015,5.849529896,-99999.0,'11133222,11111222,99999999' 
TABS,ioos:station:wmo:42048:1,2009-08-02T02:00:00Z,27.9396,-96.8429,2.0,350.5214082,5.707933076,-99999.0,'11133222,11111222,99999999' 
TABS,ioos:station:wmo:42048:1,2009-08-02T02:30:00Z,27.9396,-96.8429,2.0,353.1258396,9.357269901,-99999.0,'11133222,11111222,99999999' 
TABS,ioos:station:wmo:42048:1,2009-08-02T03:00:00Z,27.9396,-96.8429,2.0,2.249520118,9.427263654,-99999.0,'11133222,11111222,99999999' 
TABS,ioos:station:wmo:42048:1,2009-08-02T03:30:00Z,27.9396,-96.8429,2.0,352.2228528,10.56720398,-99999.0,'11111222,11111222,99999999' 
TABS,ioos:station:wmo:42048:1,2009-08-02T04:00:00Z,27.9396,-96.8429,2.0,349.5887447,9.130328581,-99999.0,'11133222,11111222,99999999' 
TABS,ioos:station:wmo:42048:1,2009-08-02T04:30:00Z,27.9396,-96.8429,2.0,359.1868398,11.2711357,-99999.0,'11111222,11144222,99999999' 
TABS,ioos:station:wmo:42048:1,2009-08-02T05:00:00Z,27.9396,-96.8429,2.0,13.73015618,11.79710134,-99999.0,'11111222,11111222,99999999' 
TABS,ioos:station:wmo:42048:1,2009-08-02T05:30:00Z,27.9396,-96.8429,2.0,7.049120356,12.14177088,-99999.0,'11111222,11111222,99999999' 
TABS,ioos:station:wmo:42048:1,2009-08-02T06:00:00Z,27.9396,-96.8429,2.0,9.920939271,10.27362156,-99999.0,'11111222,11111222,99999999' 
TABS,ioos:station:wmo:42048:1,2009-08-02T06:30:00Z,27.9396,-96.8429,2.0,21.24540955,11.2870944,-99999.0,'11111222,11111222,99999999' 
TABS,ioos:station:wmo:42048:1,2009-08-02T07:00:00Z,27.9396,-96.8429,2.0,23.8102757,11.07238908,-99999.0,'11111222,11111222,99999999' 
TABS,ioos:station:wmo:42048:1,2009-08-02T07:30:00Z,27.9396,-96.8429,2.0,19.64746026,11.80742563,-99999.0,'11111222,11111222,99999999' 
TABS,ioos:station:wmo:42048:1,2009-08-02T08:00:00Z,27.9396,-96.8429,2.0,24.45710913,10.94177773,-99999.0,'11111222,11111222,99999999' 
TABS,ioos:station:wmo:42048:1,2009-08-02T08:30:00Z,27.9396,-96.8429,2.0,37.03193073,11.32404521,-99999.0,'11111222,11111222,99999999' 
TABS,ioos:station:wmo:42048:1,2009-08-02T09:00:00Z,27.9396,-96.8429,2.0,22.75549965,11.7115712,-99999.0,'11111222,11111222,99999999' 
TABS,ioos:station:wmo:42048:1,2009-08-02T09:30:00Z,27.9396,-96.8429,2.0,31.00893124,10.90902837,-99999.0,'11111222,11111222,99999999' 
TABS,ioos:station:wmo:42048:1,2009-08-02T10:00:00Z,27.9396,-96.8429,2.0,37.26756729,9.512228971,-99999.0,'11133222,11111222,99999999' 
TABS,ioos:station:wmo:42048:1,2009-08-02T10:30:00Z,27.9396,-96.8429,2.0,24.22471833,8.213221049,-99999.0,'11133222,11111222,99999999' 
TABS,ioos:station:wmo:42048:1,2009-08-02T11:00:00Z,27.9396,-96.8429,2.0,36.98889235,6.748014523,-99999.0,'11133222,11111222,99999999' 
TABS,ioos:station:wmo:42048:1,2009-08-02T11:30:00Z,27.9396,-96.8429,2.0,41.39239868,9.664088162,-99999.0,'11133222,11111222,99999999' 
TABS,ioos:station:wmo:42048:1,2009-08-02T12:00:00Z,27.9396,-96.8429,2.0,47.71329071,8.813359178,-99999.0,'11133222,11111222,99999999' 
TABS,ioos:station:wmo:42048:1,2009-08-02T12:30:00Z,27.9396,-96.8429,2.0,71.9657566,7.687684957,-99999.0,'11133222,11111222,99999999' 
TABS,ioos:station:wmo:42048:1,2009-08-02T13:00:00Z,27.9396,-96.8429,2.0,66.6671642,8.963001729,-99999.0,'11133222,11111222,99999999' 
TABS,ioos:station:wmo:42048:1,2009-08-02T13:30:00Z,27.9396,-96.8429,2.0,48.65937819,7.312249996,-99999.0,'11133222,11111222,99999999' 
TABS,ioos:station:wmo:42048:1,2009-08-02T14:00:00Z,27.9396,-96.8429,2.0,59.11391715,7.59739429,-99999.0,'11133222,11111222,99999999' 
TABS,ioos:station:wmo:42048:1,2009-08-02T14:30:00Z,27.9396,-96.8429,2.0,52.08098772,7.973336817,-99999.0,'11133222,11111222,99999999' 
TABS,ioos:station:wmo:42048:1,2009-08-02T15:00:00Z,27.9396,-96.8429,2.0,56.82934353,9.485763016,-99999.0,'11133222,11111222,99999999' 
TABS,ioos:station:wmo:42048:1,2009-08-02T15:30:00Z,27.9396,-96.8429,2.0,57.1454765,8.939944071,-99999.0,'11133222,11111222,99999999' 
TABS,ioos:station:wmo:42048:1,2009-08-02T16:00:00Z,27.9396,-96.8429,2.0,59.27094047,10.47007641,-99999.0,'11111222,11111222,99999999' 
TABS,ioos:station:wmo:42048:1,2009-08-02T16:30:00Z,27.9396,-96.8429,2.0,67.94815591,8.070396521,-99999.0,'11133222,11111222,99999999' 
TABS,ioos:station:wmo:42048:1,2009-08-02T17:00:00Z,27.9396,-96.8429,2.0,75.14862639,7.841970416,-99999.0,'11133222,11111222,99999999' 
TABS,ioos:station:wmo:42048:1,2009-08-02T17:30:00Z,27.9396,-96.8429,2.0,64.09527726,8.537874443,-99999.0,'11133222,11111222,99999999' 
TABS,ioos:station:wmo:42048:1,2009-08-02T18:00:00Z,27.9396,-96.8429,2.0,77.02360846,9.441101631,-99999.0,'11133222,11111222,99999999' 
TABS,ioos:station:wmo:42048:1,2009-08-02T18:30:00Z,27.9396,-96.8429,2.0,68.49412957,7.201360982,-99999.0,'11133222,11111222,99999999' 
TABS,ioos:station:wmo:42048:1,2009-08-02T19:00:00Z,27.9396,-96.8429,2.0,86.59252653,6.561600415,-99999.0,'11133222,11111222,99999999' 
TABS,ioos:station:wmo:42048:1,2009-08-02T19:30:00Z,27.9396,-96.8429,2.0,73.23992836,5.409805911,-99999.0,'11133222,11111222,99999999' 
TABS,ioos:station:wmo:42048:1,2009-08-02T20:00:00Z,27.9396,-96.8429,2.0,61.04001103,5.88600034,-99999.0,'11133222,11111222,99999999' 
TABS,ioos:station:wmo:42048:1,2009-08-02T20:30:00Z,27.9396,-96.8429,2.0,62.70870684,5.997616193,-99999.0,'11133222,11111222,99999999' 
TABS,ioos:station:wmo:42048:1,2009-08-02T21:00:00Z,27.9396,-96.8429,2.0,56.40306135,6.831141925,-99999.0,'11133222,11111222,99999999' 
TABS,ioos:station:wmo:42048:1,2009-08-02T21:30:00Z,27.9396,-96.8429,2.0,38.39939667,8.24293637,-99999.0,'11133222,11111222,99999999' 
TABS,ioos:station:wmo:42048:1,2009-08-02T22:00:00Z,27.9396,-96.8429,2.0,40.44549393,8.370292707,-99999.0,'11133222,11111222,99999999' 
TABS,ioos:station:wmo:42048:1,2009-08-02T22:30:00Z,27.9396,-96.8429,2.0,26.35127775,7.186772572,-99999.0,'11133222,11111222,99999999' 
TABS,ioos:station:wmo:42048:1,2009-08-02T23:00:00Z,27.9396,-96.8429,2.0,20.57854945,6.003040896,-99999.0,'11133222,11111222,99999999' 
TABS,ioos:station:wmo:42048:1,2009-08-02T23:30:00Z,27.9396,-96.8429,2.0,16.52171936,7.103273893,-99999.0,'11133222,11111222,99999999' 
TABS,ioos:station:wmo:42048:1,2009-08-03T00:00:00Z,27.9396,-96.8429,2.0,11.66619611,6.626892183,-99999.0,'11133222,11111222,99999999' 
TABS,ioos:station:wmo:42048:1,2009-08-03T00:30:00Z,27.9396,-96.8429,2.0,4.858147688,5.549936937,-99999.0,'11133222,11111222,99999999' 
TABS,ioos:station:wmo:42048:1,2009-08-03T01:00:00Z,27.9396,-96.8429,2.0,14.0364211,10.22530195,-99999.0,'11111222,11111222,99999999' 
TABS,ioos:station:wmo:42048:1,2009-08-03T01:30:00Z,27.9396,-96.8429,2.0,13.74060382,8.925429962,-99999.0,'11133222,11111222,99999999' 
TABS,ioos:station:wmo:42048:1,2009-08-03T02:00:00Z,27.9396,-96.8429,2.0,356.4042209,9.087893045,-99999.0,'11133222,11111222,99999999' 
TABS,ioos:station:wmo:42048:1,2009-08-03T02:30:00Z,27.9396,-96.8429,2.0,12.49476501,12.71104244,-99999.0,'11111222,11111222,99999999' 
TABS,ioos:station:wmo:42048:1,2009-08-03T03:00:00Z,27.9396,-96.8429,2.0,13.49591218,12.85496013,-99999.0,'11111222,11111222,99999999' 
TABS,ioos:station:wmo:42048:1,2009-08-03T03:30:00Z,27.9396,-96.8429,2.0,16.02808795,14.30611757,-99999.0,'11111222,11111222,99999999' 
TABS,ioos:station:wmo:42048:1,2009-08-03T04:00:00Z,27.9396,-96.8429,2.0,15.71808063,14.87626633,-99999.0,'11111222,11111222,99999999' 
TABS,ioos:station:wmo:42048:1,2009-08-03T04:30:00Z,27.9396,-96.8429,2.0,22.08033616,18.70159886,-99999.0,'11111222,11111222,99999999' 
TABS,ioos:station:wmo:42048:1,2009-08-03T05:00:00Z,27.9396,-96.8429,2.0,34.30217997,18.43651269,-99999.0,'11111222,11111222,99999999' 
TABS,ioos:station:wmo:42048:1,2009-08-03T05:30:00Z,27.9396,-96.8429,2.0,31.40741289,19.49654328,-99999.0,'11111222,11111222,99999999' 
TABS,ioos:station:wmo:42048:1,2009-08-03T06:00:00Z,27.9396,-96.8429,2.0,38.14837364,21.51535498,-99999.0,'11111222,11111222,99999999' 
TABS,ioos:station:wmo:42048:1,2009-08-03T06:30:00Z,27.9396,-96.8429,2.0,39.68695237,20.38863654,-99999.0,'11111222,11111222,99999999' 
TABS,ioos:station:wmo:42048:1,2009-08-03T07:00:00Z,27.9396,-96.8429,2.0,38.68508372,21.34270836,-99999.0,'11111222,11111222,99999999' 
TABS,ioos:station:wmo:42048:1,2009-08-03T07:30:00Z,27.9396,-96.8429,2.0,36.54121261,23.69839024,-99999.0,'11111222,11111222,99999999' 
TABS,ioos:station:wmo:42048:1,2009-08-03T08:00:00Z,27.9396,-96.8429,2.0,40.23647468,24.01143478,-99999.0,'11111222,11111222,99999999' 
TABS,ioos:station:wmo:42048:1,2009-08-03T08:30:00Z,27.9396,-96.8429,2.0,36.17086517,24.09379381,-99999.0,'11111222,11111222,99999999' 
TABS,ioos:station:wmo:42048:1,2009-08-03T09:00:00Z,27.9396,-96.8429,2.0,44.33012321,21.16515296,-99999.0,'11111222,11111222,99999999' 
TABS,ioos:station:wmo:42048:1,2009-08-03T09:30:00Z,27.9396,-96.8429,2.0,47.80090923,20.69345065,-99999.0,'11111222,11111222,99999999' 
TABS,ioos:station:wmo:42048:1,2009-08-03T10:00:00Z,27.9396,-96.8429,2.0,48.61144997,20.20681073,-99999.0,'11111222,11111222,99999999' 
TABS,ioos:station:wmo:42048:1,2009-08-03T10:30:00Z,27.9396,-96.8429,2.0,41.3256143,20.08068724,-99999.0,'11111222,11111222,99999999' 
TABS,ioos:station:wmo:42048:1,2009-08-03T11:00:00Z,27.9396,-96.8429,2.0,47.82873905,13.18238977,-99999.0,'11111222,11111222,99999999' 
TABS,ioos:station:wmo:42048:1,2009-08-03T11:30:00Z,27.9396,-96.8429,2.0,55.64498439,15.77118892,-99999.0,'11111222,11111222,99999999' 
TABS,ioos:station:wmo:42048:1,2009-08-03T12:00:00Z,27.9396,-96.8429,2.0,59.90970159,20.36439294,-99999.0,'11111222,11111222,99999999' 
TABS,ioos:station:wmo:42048:1,2009-08-03T12:30:00Z,27.9396,-96.8429,2.0,59.78938027,19.83380952,-99999.0,'11111222,11111222,99999999' 
TABS,ioos:station:wmo:42048:1,2009-08-03T13:00:00Z,27.9396,-96.8429,2.0,58.05195147,16.97057453,-99999.0,'11111222,11111222,99999999' 
TABS,ioos:station:wmo:42048:1,2009-08-03T13:30:00Z,27.9396,-96.8429,2.0,59.23229726,18.55111048,-99999.0,'11111222,11111222,99999999' 
TABS,ioos:station:wmo:42048:1,2009-08-03T14:00:00Z,27.9396,-96.8429,2.0,55.77371822,17.7789201,-99999.0,'11111222,11111222,99999999' 
TABS,ioos:station:wmo:42048:1,2009-08-03T14:30:00Z,27.9396,-96.8429,2.0,57.95478522,18.2627079,-99999.0,'11111222,11111222,99999999' 
TABS,ioos:station:wmo:42048:1,2009-08-03T15:00:00Z,27.9396,-96.8429,2.0,61.89784872,17.00470817,-99999.0,'11111222,11111222,99999999' 
TABS,ioos:station:wmo:42048:1,2009-08-03T15:30:00Z,27.9396,-96.8429,2.0,61.06450865,15.89415616,-99999.0,'11111222,11111222,99999999' 
TABS,ioos:station:wmo:42048:1,2009-08-03T16:00:00Z,27.9396,-96.8429,2.0,54.28783489,18.31373801,-99999.0,'11111222,11111222,99999999' 
TABS,ioos:station:wmo:42048:1,2009-08-03T16:30:00Z,27.9396,-96.8429,2.0,69.9532194,13.82778724,-99999.0,'11111222,11111222,99999999' 
TABS,ioos:station:wmo:42048:1,2009-08-03T17:00:00Z,27.9396,-96.8429,2.0,70.89344418,14.29763967,-99999.0,'11111222,11111222,99999999' 
TABS,ioos:station:wmo:42048:1,2009-08-03T17:30:00Z,27.9396,-96.8429,2.0,58.05451702,14.21245932,-99999.0,'11111222,11111222,99999999' 
TABS,ioos:station:wmo:42048:1,2009-08-03T18:00:00Z,27.9396,-96.8429,2.0,48.49825411,12.28411983,-99999.0,'11111222,11111222,99999999' 
TABS,ioos:station:wmo:42048:1,2009-08-03T18:30:00Z,27.9396,-96.8429,2.0,49.77598804,16.4762253,-99999.0,'11111222,11111222,99999999' 
TABS,ioos:station:wmo:42048:1,2009-08-03T19:00:00Z,27.9396,-96.8429,2.0,46.54825931,13.34797737,-99999.0,'11111222,11111222,99999999' 
TABS,ioos:station:wmo:42048:1,2009-08-03T19:30:00Z,27.9396,-96.8429,2.0,48.81417114,17.85864497,-99999.0,'11111222,11111222,99999999' 
TABS,ioos:station:wmo:42048:1,2009-08-03T20:00:00Z,27.9396,-96.8429,2.0,48.27592216,17.32413923,-99999.0,'11111222,11111222,99999999' 
TABS,ioos:station:wmo:42048:1,2009-08-03T20:30:00Z,27.9396,-96.8429,2.0,49.58012565,18.50751469,-99999.0,'11111222,11111222,99999999' 
TABS,ioos:station:wmo:42048:1,2009-08-03T21:00:00Z,27.9396,-96.8429,2.0,52.13711784,16.73251326,-99999.0,'11111222,11111222,99999999' 
TABS,ioos:station:wmo:42048:1,2009-08-03T21:30:00Z,27.9396,-96.8429,2.0,48.36428862,20.96649232,-99999.0,'11111222,11111222,99999999' 
TABS,ioos:station:wmo:42048:1,2009-08-03T22:00:00Z,27.9396,-96.8429,2.0,52.91408155,21.21015087,-99999.0,'11111222,11111222,99999999' 
TABS,ioos:station:wmo:42048:1,2009-08-03T22:30:00Z,27.9396,-96.8429,2.0,41.54456398,20.29550936,-99999.0,'11111222,11111222,99999999' 
TABS,ioos:station:wmo:42048:1,2009-08-03T23:00:00Z,27.9396,-96.8429,2.0,43.54407458,21.1493215,-99999.0,'11111222,11111222,99999999' 
TABS,ioos:station:wmo:42048:1,2009-08-03T23:30:00Z,27.9396,-96.8429,2.0,43.25445344,19.73036492,-99999.0,'11111222,11111222,99999999' 
TABS,ioos:station:wmo:42048:1,2009-08-04T00:00:00Z,27.9396,-96.8429,2.0,43.89683046,19.83095056,-99999.0,'11111222,11111222,99999999' 
TABS,ioos:station:wmo:42048:1,2009-08-04T00:30:00Z,27.9396,-96.8429,2.0,38.91436834,19.34231113,-99999.0,'11111222,11111222,99999999' 
TABS,ioos:station:wmo:42048:1,2009-08-04T01:00:00Z,27.9396,-96.8429,2.0,47.74855908,17.40070114,-99999.0,'11111222,11111222,99999999' 
TABS,ioos:station:wmo:42048:1,2009-08-04T01:30:00Z,27.9396,-96.8429,2.0,47.14273049,15.31957245,-99999.0,'11111222,11111222,99999999' 
TABS,ioos:station:wmo:42048:1,2009-08-04T02:00:00Z,27.9396,-96.8429,2.0,43.67696511,18.67967077,-99999.0,'11111222,11111222,99999999' 
TABS,ioos:station:wmo:42048:1,2009-08-04T02:30:00Z,27.9396,-96.8429,2.0,37.47202154,17.70297715,-99999.0,'11111222,11111222,99999999' 
TABS,ioos:station:wmo:42048:1,2009-08-04T03:00:00Z,27.9396,-96.8429,2.0,39.09397793,16.28626722,-99999.0,'11111222,11111222,99999999' 
TABS,ioos:station:wmo:42048:1,2009-08-04T03:30:00Z,27.9396,-96.8429,2.0,34.02258501,15.29888885,-99999.0,'11111222,11111222,99999999' 
TABS,ioos:station:wmo:42048:1,2009-08-04T04:00:00Z,27.9396,-96.8429,2.0,34.82341305,16.96882436,-99999.0,'11111222,11111222,99999999' 
TABS,ioos:station:wmo:42048:1,2009-08-04T04:30:00Z,27.9396,-96.8429,2.0,34.96300706,16.10692087,-99999.0,'11111222,11111222,99999999' 
TABS,ioos:station:wmo:42048:1,2009-08-04T05:00:00Z,27.9396,-96.8429,2.0,32.94405675,16.82548365,-99999.0,'11111222,11111222,99999999' 
TABS,ioos:station:wmo:42048:1,2009-08-04T05:30:00Z,27.9396,-96.8429,2.0,23.56753097,16.93231526,-99999.0,'11111222,11111222,99999999' 
TABS,ioos:station:wmo:42048:1,2009-08-04T06:00:00Z,27.9396,-96.8429,2.0,30.37242579,17.44405056,-99999.0,'11111222,11111222,99999999' 
TABS,ioos:station:wmo:42048:1,2009-08-04T06:30:00Z,27.9396,-96.8429,2.0,32.97692887,15.81850183,-99999.0,'11111222,11111222,99999999' 
TABS,ioos:station:wmo:42048:1,2009-08-04T07:00:00Z,27.9396,-96.8429,2.0,29.90534538,17.73083472,-99999.0,'11111222,11111222,99999999' 
TABS,ioos:station:wmo:42048:1,2009-08-04T07:30:00Z,27.9396,-96.8429,2.0,35.2738791,17.1606585,-99999.0,'11111222,11111222,99999999' 
TABS,ioos:station:wmo:42048:1,2009-08-04T08:00:00Z,27.9396,-96.8429,2.0,33.01117149,16.85020178,-99999.0,'11111222,11111222,99999999' 
TABS,ioos:station:wmo:42048:1,2009-08-04T08:30:00Z,27.9396,-96.8429,2.0,32.59832545,18.3389449,-99999.0,'11111222,11111222,99999999' 
TABS,ioos:station:wmo:42048:1,2009-08-04T09:00:00Z,27.9396,-96.8429,2.0,31.20908068,18.83586207,-99999.0,'11111222,11111222,99999999' 
TABS,ioos:station:wmo:42048:1,2009-08-04T09:30:00Z,27.9396,-96.8429,2.0,30.7445402,17.91830349,-99999.0,'11111222,11111222,99999999' 
TABS,ioos:station:wmo:42048:1,2009-08-04T10:00:00Z,27.9396,-96.8429,2.0,37.48278618,18.70106949,-99999.0,'11111222,11111222,99999999' 
TABS,ioos:station:wmo:42048:1,2009-08-04T10:30:00Z,27.9396,-96.8429,2.0,37.25507556,19.04643011,-99999.0,'11111222,11111222,99999999' 
TABS,ioos:station:wmo:42048:1,2009-08-04T11:00:00Z,27.9396,-96.8429,2.0,42.67362146,19.85778437,-99999.0,'11111222,11111222,99999999' 
TABS,ioos:station:wmo:42048:1,2009-08-04T11:30:00Z,27.9396,-96.8429,2.0,51.00790365,17.76818786,-99999.0,'11111222,11111222,99999999' 
TABS,ioos:station:wmo:42048:1,2009-08-04T12:00:00Z,27.9396,-96.8429,2.0,49.78901433,18.63367382,-99999.0,'11111222,11111222,99999999' 
TABS,ioos:station:wmo:42048:1,2009-08-04T12:30:00Z,27.9396,-96.8429,2.0,49.13139592,20.21922353,-99999.0,'11111222,11111222,99999999' 
TABS,ioos:station:wmo:42048:1,2009-08-04T13:00:00Z,27.9396,-96.8429,2.0,48.5713135,19.75249351,-99999.0,'11111222,11111222,99999999' 
TABS,ioos:station:wmo:42048:1,2009-08-04T13:30:00Z,27.9396,-96.8429,2.0,50.57027503,19.5234833,-99999.0,'11111222,11111222,99999999' 
TABS,ioos:station:wmo:42048:1,2009-08-04T14:00:00Z,27.9396,-96.8429,2.0,56.60678678,18.20550466,-99999.0,'11111222,11111222,99999999' 
TABS,ioos:station:wmo:42048:1,2009-08-04T14:30:00Z,27.9396,-96.8429,2.0,58.31602857,18.14426907,-99999.0,'11111222,11111222,99999999' 
TABS,ioos:station:wmo:42048:1,2009-08-04T15:00:00Z,27.9396,-96.8429,2.0,48.66221834,17.38081989,-99999.0,'11111222,11111222,99999999' 
TABS,ioos:station:wmo:42048:1,2009-08-04T15:30:00Z,27.9396,-96.8429,2.0,55.47352887,21.27779359,-99999.0,'11111222,11111222,99999999' 
TABS,ioos:station:wmo:42048:1,2009-08-04T16:00:00Z,27.9396,-96.8429,2.0,55.96621161,21.26204129,-99999.0,'11111222,11111222,99999999' 